Location: Unspecified
(43.4354°N, 0.0000°E)
Time: 04:43:19
(UTC+00:00)

A-11 Canister half - Pass Details

Date: 24 June 2019
Orbit: 1514 x 1686 km, 47.2° (Epoch: 17 August)

Event Time Altitude Azimuth Distance (km) Brightness Sun altitude
Rises 16:56:23 0° 295° (WNW) 4,780 12.7 27.6°
Reaches altitude 10° 16:59:46 10° 288° (WNW) 3,769 12.7 26.9°
Maximum altitude 17:08:13 38° 225° (SW) 2,190 10.6 25.4°
Drops below altitude 10° 17:16:28 10° 161° (SSE) 3,670 10.8 24.0°
Sets 17:19:44 0° 153° (SSE) 4,642 11.2 23.4°
